Weather History for KROW - July, 2013

Change the Weather History Date:

Tuesday, July 30, 2013

  Actual Average Record
Temperature  
Mean Temperature 86 °F 80 °F  
Max Temperature 100 °F 93 °F 104 °F (1957)
Min Temperature 71 °F 67 °F 56 °F (1947)
Degree Days  
Heating Degree Days 0 0  
Month to date heating degree days 0 0  
Since 1 June heating degree days 0 1  
Since 1 July heating degree days 0 0  
Cooling Degree Days 21 15  
Month to date cooling degree days 446 462  
Year to date cooling degree days 1319 1084  
Since 1 June cooling degree days 996 859  
Growing Degree Days 36 (Base 50)    
Moisture  
Dew Point 58 °F    
Average Humidity 46    
Maximum Humidity 73    
Minimum Humidity 18    
Precipitation  
Precipitation 0.00 in 0.05 in 1.24 in (1925)
Month to date precipitation 2.25 2.00  
Year to date precipitation 3.84 6.90  
Sea Level Pressure  
Sea Level Pressure 29.91 in    
Wind  
Wind Speed 9 mph (NNW)    
Max Wind Speed 21 mph    
Max Gust Speed 25 mph    
Visibility 10 miles    
Events      
T = Trace of Precipitation, MM = Missing Value Source: NWS Daily Summary

Daily Weather History Graph

Daily Weather History Graph

Search for Another Location

Airport or City:

Trip Planner

Search our weather history database for the weather conditions in past years. The results will help you decide how hot, cold, wet, or windy it might be!

Date:

Astronomy

Jul. 30, 2013 Rise Set
Actual Time 6:09 AM MDT 7:58 PM MDT
Civil Twilight 5:42 AM MDT 8:26 PM MDT
Nautical Twilight 5:09 AM MDT 8:58 PM MDT
Astronomical Twilight 4:34 AM MDT 9:33 PM MDT
Moon 12:26 AM MDT (7/30) 2:22 PM MDT (7/30)
Length of Visible Light 14h 43m
Length of Day
13h 49m
Last Quarter, 40% of the Moon is Illuminated
Jul 30
Last Quarter
Aug 6
New
Aug 14
First Quarter
Aug 20
Full
Aug 28
Last Quarter

Hourly Weather History & Observations

Time (MDT) Temp. Heat Index Dew Point Humidity Pressure Visibility Wind Dir Wind Speed Gust Speed Precip Events Conditions
12:51 AM 75.0 °F - 63.0 °F 66% 29.81 in 10.0 mi Calm Calm - N/A   Clear
1:51 AM 73.9 °F - 64.0 °F 71% 29.82 in 10.0 mi East 4.6 mph - N/A   Clear
2:51 AM 72.0 °F - 62.1 °F 71% 29.84 in 10.0 mi Variable 3.5 mph - N/A   Clear
3:51 AM 73.0 °F - 62.1 °F 68% 29.87 in 10.0 mi NNW 3.5 mph - N/A   Clear
4:51 AM 75.0 °F - 60.1 °F 60% 29.89 in 10.0 mi North 11.5 mph - N/A   Clear
5:51 AM 75.0 °F - 63.0 °F 66% 29.92 in 10.0 mi North 15.0 mph - N/A   Clear
6:51 AM 75.0 °F - 62.1 °F 64% 29.95 in 10.0 mi NNW 11.5 mph - N/A   Clear
7:51 AM 78.1 °F - 61.0 °F 56% 29.96 in 10.0 mi North 13.8 mph - N/A   Clear
8:51 AM 80.1 °F 81.1 °F 61.0 °F 52% 29.98 in 10.0 mi North 16.1 mph 21.9 mph N/A   Clear
9:51 AM 84.0 °F 84.5 °F 62.1 °F 47% 29.98 in 10.0 mi North 16.1 mph - N/A   Clear
10:51 AM 87.1 °F 87.5 °F 62.1 °F 43% 29.98 in 10.0 mi North 13.8 mph - N/A   Clear
11:51 AM 90.0 °F 89.7 °F 60.1 °F 37% 29.97 in 10.0 mi NNE 6.9 mph - N/A   Clear
12:51 PM 91.9 °F 91.5 °F 60.1 °F 34% 29.95 in 10.0 mi Calm Calm - N/A   Clear
1:51 PM 93.9 °F 93.2 °F 59.0 °F 31% 29.93 in 10.0 mi North 5.8 mph - N/A   Clear
2:51 PM 97.0 °F 94.6 °F 54.0 °F 23% 29.91 in 10.0 mi Variable 3.5 mph - N/A   Clear
3:51 PM 98.1 °F - 51.1 °F 20% 29.89 in 10.0 mi Variable 3.5 mph - N/A   Clear
4:51 PM 99.0 °F - 51.1 °F 20% 29.87 in 10.0 mi Variable 3.5 mph - N/A   Clear
5:51 PM 99.0 °F - 48.9 °F 18% 29.86 in 10.0 mi ENE 5.8 mph - N/A   Clear
6:51 PM 93.9 °F 92.0 °F 55.0 °F 27% 29.86 in 10.0 mi WSW 15.0 mph - N/A   Clear
7:51 PM 88.0 °F 86.7 °F 57.0 °F 35% 29.87 in 10.0 mi West 13.8 mph - N/A   Clear
8:51 PM 87.1 °F 85.1 °F 54.0 °F 32% 29.91 in 10.0 mi WNW 9.2 mph - N/A   Clear
9:51 PM 82.9 °F 82.1 °F 55.9 °F 39% 29.92 in 10.0 mi South 9.2 mph - N/A   Clear
10:51 PM 80.1 °F 80.4 °F 57.0 °F 45% 29.93 in 10.0 mi South 8.1 mph - N/A   Clear
11:51 PM 75.9 °F - 59.0 °F 56% 29.93 in 10.0 mi SSW 4.6 mph - N/A   Clear